Regional Weather Roundup
Issued by NWS New Orleans/Baton Rouge, LA

Home | Current Version | Previous Version | Graphics & Text | Print | Product List | Glossary On
Versions: 1 2 3 4 5 6 7 8 9 10 11 12 13 14 15 16 17 18 19 20 21 22 23 24 25 26 27 28 29 30 31 32 33 34 35 36 37 38 39 40 41 42 43 44 45 46 47 48 49 50
455
ASUS44 KLIX 240401
RWRLIX
NEW ORLEANS REGIONAL WEATHER ROUNDUP
NATIONAL WEATHER SERVICE NEW ORLEANS LA
1100 PM CDT TUE SEP 23 2014

NOTE: "FAIR" INDICATES FEW OR NO CLOUDS BELOW 12,000 FEET WITH NO
      SIGNIFICANT WEATHER AND/OR OBSTRUCTIONS TO VISIBILITY.
      SKY/WX - SKY CONDITION AND SIGNIFICANT WEATHER.
      TMP - AIR TEMPERATURE.     DP    - DEWPOINT TEMPERATURE.
      RH  - RELATIVE HUMIDITY.   PRES  - PRESSURE.
      HI  - HEAT INDEX.          WCI   - WIND CHILL INDEX.

*  THESE STATIONS ARE NOT NWS OR FAA STATIONS AND ARE NOT UNDER
   NWS QUALITY CONTROL.

LAZ038-040-048-061>063-065>067-069-240500-
SOUTHEAST LOUISIANA

CITY           SKY/WX    TMP DP  RH WIND       PRES   REMARKS
N.O. AUDUBON   NOT AVBL
N.O. INTL ARPT CLEAR     73  59  61 SE3       30.08R
N.O. LAKEFRONT CLEAR     76  67  73 SE8       30.09R
N.O. DOWNTOWN*   N/A     77  63  61 SE5       30.09R
SLIDELL        CLEAR     62  59  90 CALM      30.09R
BATON ROUGE    CLEAR     65  58  78 NE5       30.09R
BOOTHVILLE     CLEAR     78  65  63 E14       30.08R
BELLE CHASSE   PTCLDY    69  63  81 E3        30.08R
BOGALUSA*        N/A     64  59  85 CALM      30.12R
GALLIANO*      NOT AVBL
NEW ROADS*       N/A     64  58  80 N6        30.09R
GONZALES*        N/A     64  64 100 CALM      30.08R
HAMMOND*       NOT AVBL
HOUMA*         CLEAR     64  64 100 CALM      30.08R
PORT FOURCHON* PTCLDY    79  64  61 E15G23    30.10R

$$

MSZ070-080>082-240500-
SOUTHERN MISSISSIPPI

CITY           SKY/WX    TMP DP  RH WIND       PRES   REMARKS
MCCOMB         CLEAR     69  57  65 NE5       30.11S
GULFPORT       CLEAR     73  60  63 E8        30.09R
BILOXI         CLEAR     71  59  66 E6        30.10R
PASCAGOULA     CLEAR     61  58  90 NE3       30.10R

$$

COASTAL OBSERVATIONS
LAKE AND NEARSHORE STATIONS

STATION/POSITION TIME  TEMP    WIND        PRES    WAVE
                       AIR SEA DIR/SP/G            HT/PER
                 (UTC) (F)     (DEG/KT/KT) (MB)    (FT/S)
PASCAGOULA       0300   74      60/ 11/ 13 1018.6
WAVELAND YACHT   0300   77      80/  8/ 12 1018.1
GRAND ISLE       0300   78 81   90/ 13/ 20 1018.7
SOUTHWEST PASS   0300   82 88   70/ 19/ 23 1018.3
NEW CANAL        0300   74 80   CALM  /  4 1018.9
SHELL BEACH      0300   77 76              1018.4

OFFSHORE STATIONS

STATION/POSITION TIME  TEMP    WIND        PRES    WAVE
                       AIR SEA DIR/SP/G            HT/PER
                 (UTC) (F)     (DEG/KT/KT) (MB)    (FT/S)
64 S DAUPHIN ISL 0321   80 83   70/ 17/ 21 1018.4    4/ 5

$$




USA.gov is the U.S. government's official web portal to all federal, state and local government web resources and services.